Location: Melita
(38.4566°N, 122.6369°W)
Time: 22:13:18
(UTC+00:00)

STARLINK-1061 - Pass Details

Date: 24 January 2020
Orbit: 549 x 550 km, 53.0° (Epoch: 18 February)

Event Time Altitude Azimuth Distance (km) Brightness Sun altitude
Rises 14:40:48 0° 230° (SW) 2,703 6.8 -8.4°
Reaches altitude 10° 14:43:01 10° 231° (SW) 1,814 5.9 -8.0°
Maximum altitude 14:47:08 81° 319° (NW) 560 3.6 -7.2°
Drops below altitude 10° 14:51:13 11° 47° (NE) 1,791 6.6 -6.5°
Sets 14:53:32 0° 48° (NE) 2,723 7.6 -6.0°
